When you browse on this site, cookies collect data to enhance your experience and personalize the content and advertising you see.
Visit our Privacy Policy to learn more. By continuing to use the site, you agree to this use of cookies and data.
  • en Belgique
  • Liste des pays
  • À 7 jours
  • Température de l'eau
  • Carte satellitaire
  • Carte météo
  • Widgets météo
  • user-avatar
    Se connecter

    Météo par heure à Dunkerque

    Ce jour, 25 Avril, Jeudi

    Heure Température Précipitation Vent Pression Humidité
    00:00 +10°C° 0 mm 6 m/s 750 mmHg 79%
    01:00 +9°C° 0 mm 6 m/s 750 mmHg 79%
    02:00 +9°C° 0 mm 7 m/s 749 mmHg 79%
    03:00 +9°C° 0 mm 7 m/s 749 mmHg 80%
    04:00 +9°C° 0.1 mm 7 m/s 749 mmHg 78%
    05:00 +9°C° 0.1 mm 8 m/s 749 mmHg 77%
    06:00 +10°C° 0.1 mm 8 m/s 748 mmHg 76%
    07:00 +11°C° 0.4 mm 9 m/s 749 mmHg 75%
    08:00 +12°C° 0.4 mm 9 m/s 749 mmHg 74%
    09:00 +13°C° 0.4 mm 10 m/s 749 mmHg 73%
    10:00 +13°C° 0.2 mm 9 m/s 750 mmHg 70%
    11:00 +13°C° 0.2 mm 8 m/s 750 mmHg 67%
    12:00 +14°C° 0.2 mm 7 m/s 751 mmHg 65%
    13:00 +14°C° 0.3 mm 7 m/s 751 mmHg 66%
    14:00 +14°C° 0.3 mm 7 m/s 752 mmHg 67%
    15:00 +14°C° 0.3 mm 7 m/s 753 mmHg 69%
    16:00 +13°C° 0.1 mm 6 m/s 753 mmHg 70%
    17:00 +13°C° 0.1 mm 6 m/s 753 mmHg 72%
    18:00 +13°C° 0.1 mm 5 m/s 754 mmHg 74%
    19:00 +12°C° 0 mm 5 m/s 754 mmHg 76%
    20:00 +10°C° 0 mm 5 m/s 754 mmHg 77%
    21:00 +9°C° 0 mm 5 m/s 755 mmHg 79%
    22:00 +9°C° 0 mm 5 m/s 755 mmHg 79%
    23:00 +8°C° 0 mm 5 m/s 755 mmHg 80%

    Demain, 26 Avril, Vendredi

    Heure Température Précipitation Vent Pression Humidité
    00:00 +8°C° 0 mm 5 m/s 756 mmHg 80%
    01:00 +7°C° 0 mm 5 m/s 756 mmHg 84%
    02:00 +6°C° 0 mm 5 m/s 756 mmHg 87%
    03:00 +6°C° 0 mm 5 m/s 757 mmHg 90%
    04:00 +6°C° 0 mm 4 m/s 757 mmHg 90%
    05:00 +6°C° 0 mm 4 m/s 757 mmHg 89%
    06:00 +7°C° 0 mm 4 m/s 757 mmHg 88%
    07:00 +8°C° 0 mm 4 m/s 758 mmHg 82%
    08:00 +11°C° 0 mm 4 m/s 758 mmHg 76%
    09:00 +13°C° 0 mm 4 m/s 759 mmHg 70%
    10:00 +14°C° 0 mm 5 m/s 759 mmHg 67%
    11:00 +15°C° 0 mm 5 m/s 759 mmHg 64%
    12:00 +15°C° 0 mm 5 m/s 759 mmHg 61%
    13:00 +15°C° 0 mm 6 m/s 759 mmHg 61%
    14:00 +15°C° 0 mm 6 m/s 759 mmHg 61%
    15:00 +15°C° 0 mm 6 m/s 759 mmHg 61%
    16:00 +14°C° 0 mm 6 m/s 759 mmHg 65%
    17:00 +13°C° 0 mm 6 m/s 760 mmHg 68%
    18:00 +11°C° 0 mm 6 m/s 760 mmHg 72%
    19:00 +10°C° 0 mm 6 m/s 760 mmHg 77%
    20:00 +9°C° 0 mm 6 m/s 761 mmHg 83%
    21:00 +8°C° 0 mm 7 m/s 761 mmHg 88%
    22:00 +8°C° 0 mm 7 m/s 761 mmHg 84%
    23:00 +8°C° 0 mm 7 m/s 761 mmHg 80%

    Après-demain, 27 Avril, Samedi

    Heure Température Précipitation Vent Pression Humidité
    00:00 +6°C° 0 mm 7 m/s 761 mmHg 76%
    01:00 +8°C° 0.1 mm 7 m/s 760 mmHg 78%
    02:00 +7°C° 0.1 mm 8 m/s 760 mmHg 81%
    03:00 +7°C° 0.1 mm 8 m/s 759 mmHg 84%
    04:00 +7°C° 0.4 mm 8 m/s 759 mmHg 83%
    05:00 +7°C° 0.4 mm 8 m/s 758 mmHg 82%
    06:00 +7°C° 0.4 mm 8 m/s 758 mmHg 81%
    07:00 +8°C° 0.1 mm 9 m/s 757 mmHg 78%
    08:00 +8°C° 0.1 mm 10 m/s 757 mmHg 74%
    09:00 +9°C° 0.1 mm 11 m/s 756 mmHg 70%
    10:00 +9°C° 0.4 mm 10 m/s 756 mmHg 71%
    11:00 +10°C° 0.4 mm 9 m/s 755 mmHg 72%
    12:00 +11°C° 0.4 mm 9 m/s 755 mmHg 72%
    13:00 +10°C° 0.5 mm 8 m/s 755 mmHg 75%
    14:00 +10°C° 0.5 mm 7 m/s 755 mmHg 79%
    15:00 +9°C° 0.5 mm 6 m/s 755 mmHg 82%
    16:00 +9°C° 0.1 mm 6 m/s 756 mmHg 81%
    17:00 +9°C° 0.1 mm 6 m/s 756 mmHg 81%
    18:00 +9°C° 0.1 mm 7 m/s 757 mmHg 80%
    19:00 +9°C° 0.1 mm 7 m/s 758 mmHg 82%
    20:00 +7°C° 0.1 mm 8 m/s 759 mmHg 84%
    21:00 +7°C° 0.1 mm 8 m/s 760 mmHg 86%
    22:00 +7°C° 0 mm 8 m/s 761 mmHg 86%
    23:00 +7°C° 0 mm 8 m/s 762 mmHg 86%

    28 Avril, Dimanche

    Heure Température Précipitation Vent Pression Humidité
    00:00 +8°C° 0 mm 7 m/s 763 mmHg 86%
    01:00 +8°C° 0.1 mm 7 m/s 763 mmHg 87%
    02:00 +8°C° 0.1 mm 7 m/s 764 mmHg 88%
    03:00 +8°C° 0.1 mm 7 m/s 764 mmHg 89%
    04:00 +8°C° 0.4 mm 7 m/s 765 mmHg 90%
    05:00 +8°C° 0.4 mm 7 m/s 765 mmHg 90%
    06:00 +8°C° 0.4 mm 7 m/s 765 mmHg 90%
    07:00 +8°C° 0.7 mm 7 m/s 766 mmHg 90%
    08:00 +7°C° 0.7 mm 8 m/s 766 mmHg 90%
    09:00 +7°C° 0.7 mm 8 m/s 766 mmHg 89%
    10:00 +8°C° 0.5 mm 7 m/s 766 mmHg 87%
    11:00 +8°C° 0.5 mm 7 m/s 766 mmHg 85%
    12:00 +8°C° 0.5 mm 6 m/s 766 mmHg 83%
    13:00 +8°C° 0.2 mm 6 m/s 766 mmHg 81%
    14:00 +8°C° 0.2 mm 5 m/s 766 mmHg 78%
    15:00 +8°C° 0.2 mm 5 m/s 766 mmHg 76%
    16:00 +8°C° 0.1 mm 4 m/s 766 mmHg 77%
    17:00 +9°C° 0.1 mm 3 m/s 766 mmHg 78%
    18:00 +9°C° 0.1 mm 2 m/s 766 mmHg 80%
    19:00 +8°C° 0.1 mm 2 m/s 766 mmHg 82%
    20:00 +7°C° 0.1 mm 2 m/s 767 mmHg 84%
    21:00 +8°C° 0.1 mm 1 m/s 767 mmHg 87%
    22:00 +7°C° 0 mm 1 m/s 767 mmHg 88%
    23:00 +7°C° 0 mm 1 m/s 767 mmHg 89%

    29 Avril, Lundi

    Heure Température Précipitation Vent Pression Humidité
    00:00 +6°C° 0 mm 1 m/s 767 mmHg 91%
    01:00 +6°C° 0 mm 1 m/s 767 mmHg 91%
    02:00 +5°C° 0 mm 1 m/s 767 mmHg 91%
    03:00 +5°C° 0 mm 1 m/s 767 mmHg 91%
    04:00 +6°C° 0 mm 1 m/s 768 mmHg 89%
    05:00 +7°C° 0 mm 1 m/s 768 mmHg 87%
    06:00 +7°C° 0 mm 1 m/s 768 mmHg 85%
    07:00 +9°C° 0 mm 1 m/s 768 mmHg 81%
    08:00 +10°C° 0 mm 1 m/s 768 mmHg 76%
    09:00 +12°C° 0 mm 2 m/s 768 mmHg 72%
    10:00 +13°C° 0 mm 2 m/s 768 mmHg 71%
    11:00 +12°C° 0 mm 3 m/s 768 mmHg 70%
    12:00 +13°C° 0 mm 4 m/s 768 mmHg 68%
    13:00 +13°C° 0 mm 4 m/s 767 mmHg 70%
    14:00 +13°C° 0 mm 4 m/s 767 mmHg 72%
    15:00 +13°C° 0 mm 5 m/s 767 mmHg 73%
    16:00 +12°C° 0 mm 5 m/s 767 mmHg 76%
    17:00 +12°C° 0 mm 5 m/s 767 mmHg 78%
    18:00 +10°C° 0 mm 5 m/s 767 mmHg 81%
    19:00 +10°C° 0 mm 4 m/s 767 mmHg 83%
    20:00 +8°C° 0 mm 4 m/s 767 mmHg 85%
    21:00 +8°C° 0 mm 4 m/s 768 mmHg 87%
    22:00 +8°C° 0 mm 4 m/s 768 mmHg 89%
    23:00 +8°C° 0 mm 4 m/s 767 mmHg 91%

    30 Avril, Mardi

    Heure Température Précipitation Vent Pression Humidité
    00:00 +7°C° 0 mm 4 m/s 767 mmHg 94%
    01:00 +8°C° 0 mm 4 m/s 767 mmHg 92%
    02:00 +8°C° 0 mm 4 m/s 767 mmHg 90%
    03:00 +8°C° 0 mm 4 m/s 766 mmHg 88%
    04:00 +8°C° 0 mm 4 m/s 766 mmHg 88%
    05:00 +10°C° 0 mm 4 m/s 766 mmHg 88%
    06:00 +10°C° 0 mm 4 m/s 766 mmHg 88%
    07:00 +11°C° 0 mm 4 m/s 766 mmHg 84%
    08:00 +12°C° 0 mm 4 m/s 766 mmHg 81%
    09:00 +13°C° 0 mm 4 m/s 766 mmHg 77%
    10:00 +14°C° 0 mm 4 m/s 766 mmHg 76%
    11:00 +14°C° 0 mm 5 m/s 766 mmHg 75%
    12:00 +14°C° 0 mm 5 m/s 765 mmHg 73%
    13:00 +14°C° 0 mm 6 m/s 765 mmHg 69%
    14:00 +14°C° 0 mm 6 m/s 765 mmHg 65%
    15:00 +13°C° 0 mm 6 m/s 765 mmHg 61%
    16:00 +11°C° 0 mm 6 m/s 764 mmHg 66%
    17:00 +10°C° 0 mm 6 m/s 764 mmHg 70%
    18:00 +9°C° 0 mm 6 m/s 764 mmHg 75%
    19:00 +9°C° 0 mm 5 m/s 764 mmHg 81%
    20:00 +8°C° 0 mm 5 m/s 765 mmHg 86%
    21:00 +7°C° 0 mm 5 m/s 765 mmHg 91%
    22:00 +7°C° 0 mm 5 m/s 764 mmHg 92%
    23:00 +7°C° 0 mm 5 m/s 764 mmHg 93%
    Voir plus